CLUSTER II-FM8 (TANGO)

Last updated on Tue Sep 01 2026 00:05:35 GMT+0000 (Coordinated Universal Time)

1 26464U 00045B 26242.68406919 .00218879 -14532-2 00000+0 0 9992 2 26464 149.4895 65.8568 9133957 283.7320 2.2648 0.44936442 20644
UTC large
Height (km)
Speed (km/s)
/
Latitude / Longitude
Inclination (degrees)
Orbital Period (minutes)
Azimuth
Elevation
Range (km)
Doppler Factor

Next 0 passes for location: London (51.5072 / 0.1276)

No passes found over London.
CLUSTER II-FM8 (TANGO)